This demonstration page uses our WeatherBlox Daily Observations layout. Learn more.

Left ArrowRight Arrow

53.62937, 11.41316

Hourly Observations for April 18, 2022

Temp ( °F °C ) Dew Point ( °F °C ) Humidity (%) Winds ( mph kmh ) Pressure ( in mb ) Visibility ( mi km ) Precip ( " mm )
12:20 am 00:20 Mostly Clear 37 3 27 -3 65 65 Calm 30.27 1025 30 48 N/A
12:50 am 00:50 Mostly Clear 37 3 25 -4 60 60 ENE 1 2 30.27 1025 30 48 N/A
1:20 am 01:20 Mostly Clear 36 2 25 -4 65 65 NNE 1 2 30.27 1025 30 48 N/A
1:50 am 01:50 Mostly Clear 36 2 25 -4 65 65 Calm 30.27 1025 30 48 N/A
2:20 am 02:20 Mostly Clear 36 2 25 -4 65 65 Calm 30.24 1024 30 48 N/A
2:50 am 02:50 Mostly Clear 34 1 25 -4 70 70 Calm 30.24 1024 30 48 N/A
3:20 am 03:20 Mostly Clear 34 1 25 -4 70 70 Calm 30.24 1024 30 48 N/A
3:50 am 03:50 Mostly Clear 32 0 25 -4 75 75 Calm 30.24 1024 30 48 N/A
4:20 am 04:20 Mostly Clear 32 0 25 -4 75 75 Calm 30.24 1024 30 48 N/A
4:50 am 04:50 Mostly Clear 32 0 27 -3 80 80 VRB 1 2 30.21 1023 30 48 N/A
5:20 am 05:20 Mostly Clear 30 -1 25 -4 80 80 Calm 30.21 1023 30 48 N/A
5:50 am 05:50 Mostly Clear 32 0 27 -3 80 80 Calm 30.21 1023 30 48 N/A
6:20 am 06:20 Mostly Sunny 30 -1 27 -3 86 86 Calm 30.21 1023 7 11 N/A
6:50 am 06:50 Mostly Sunny 32 0 28 -2 87 87 Calm 30.21 1023 7 11 N/A
7:20 am 07:20 Mostly Sunny 32 0 28 -2 87 87 Calm 30.21 1023 7 11 N/A
7:50 am 07:50 Mostly Sunny 37 3 32 0 81 81 ENE 2 4 30.21 1023 7 11 N/A
8:20 am 08:20 Mostly Sunny 43 6 36 2 76 76 VRB 1 2 30.21 1023 7 11 N/A
8:50 am 08:50 Mostly Sunny 46 8 36 2 66 66 VRB 2 4 30.21 1023 7 11 N/A
9:20 am 09:20 Mostly Sunny 50 10 36 2 58 58 VRB 2 4 30.21 1023 7 11 N/A
9:50 am 09:50 Mostly Sunny 52 11 36 2 54 54 ESE 5 7 30.21 1023 7 11 N/A
10:20 am 10:20 Mostly Sunny 54 12 37 3 54 54 VRB 3 6 30.21 1023 7 11 N/A
10:50 am 10:50 Mostly Sunny 54 12 34 1 47 47 ESE 6 9 30.18 1022 7 11 N/A
11:20 am 11:20 Mostly Sunny 55 13 36 2 47 47 SE 6 9 30.18 1022 7 11 N/A
11:50 am 11:50 Mostly Sunny 55 13 36 2 47 47 ESE 6 9 30.18 1022 7 11 N/A
12:20 pm 12:20 Mostly Sunny 55 13 34 1 44 44 VRB 5 7 30.18 1022 7 11 N/A
12:50 pm 12:50 Mostly Sunny 57 14 32 0 39 39 E 5 7 30.15 1021 7 11 N/A
1:20 pm 13:20 Mostly Sunny 57 14 34 1 41 41 ENE 8 13 30.15 1021 7 11 N/A
1:50 pm 13:50 Mostly Sunny 59 15 36 2 42 42 E 7 11 30.15 1021 7 11 N/A
2:20 pm 14:20 Mostly Sunny 59 15 36 2 42 42 E 8 13 30.15 1021 7 11 N/A
2:50 pm 14:50 Mostly Sunny 59 15 37 3 45 45 NE 9 15 30.12 1020 7 11 N/A
3:20 pm 15:20 Mostly Sunny 59 15 37 3 45 45 E 8 13 30.12 1020 7 11 N/A
3:50 pm 15:50 Mostly Sunny 59 15 36 2 42 42 NE 9 15 30.12 1020 7 11 N/A
4:20 pm 16:20 Mostly Sunny 59 15 36 2 42 42 NE 9 15 30.12 1020 7 11 N/A
4:50 pm 16:50 Mostly Sunny 57 14 36 2 44 44 NNE 10 17 30.09 1019 7 11 N/A
5:20 pm 17:20 Mostly Sunny 57 14 36 2 44 44 NE 12 19 30.09 1019 7 11 N/A
5:50 pm 17:50 Mostly Sunny 57 14 34 1 41 41 NE 12 19 30.09 1019 7 11 N/A
6:20 pm 18:20 Mostly Sunny 55 13 32 0 41 41 NE 10 17 30.09 1019 7 11 N/A
6:50 pm 18:50 Mostly Sunny 55 13 34 1 44 44 ENE 12 19 30.09 1019 7 11 N/A
7:20 pm 19:20 Mostly Sunny 54 12 34 1 47 47 NE 9 15 30.09 1019 7 11 N/A
7:50 pm 19:50 Mostly Sunny 52 11 34 1 50 50 NE 8 13 30.09 1019 7 11 N/A
8:20 pm 20:20 Mostly Sunny 50 10 34 1 54 54 NE 7 11 30.09 1019 7 11 N/A
9:20 pm 21:20 Mostly Clear 46 8 34 1 62 62 ENE 5 7 30.09 1019 30 48 N/A
9:50 pm 21:50 Mostly Clear 45 7 34 1 66 66 ENE 7 11 30.09 1019 30 48 N/A
10:20 pm 22:20 Mostly Clear 43 6 34 1 71 71 ENE 7 11 30.09 1019 30 48 N/A
10:50 pm 22:50 Mostly Clear 43 6 34 1 71 71 NE 5 7 30.06 1018 30 48 N/A
11:20 pm 23:20 Mostly Clear 43 6 36 2 76 76 NE 6 9 30.09 1019 30 48 N/A
11:50 pm 23:50 Mostly Clear 43 6 37 3 81 81 ENE 5 7 30.06 1018 30 48 N/A

Powered by AerisWeather